Weather History for KYNG - October, 2013

Change the Weather History Date:

Tuesday, October 29, 2013

  Actual Average Record
Temperature  
Mean Temperature 43 °F 47 °F  
Max Temperature 57 °F 56 °F 75 °F (1999)
Min Temperature 29 °F 38 °F 22 °F (1965)
Degree Days  
Heating Degree Days 22 18  
Month to date heating degree days 349 403  
Since 1 July heating degree days 538 586  
Cooling Degree Days 0 0  
Month to date cooling degree days 21 3  
Year to date cooling degree days 630 541  
Moisture  
Dew Point 34 °F    
Average Humidity 72    
Maximum Humidity 100    
Minimum Humidity 43    
Precipitation  
Precipitation 0.00 in 0.09 in 1.22 in (2012)
Month to date precipitation 2.66 2.59  
Year to date precipitation 32.09 32.56  
Snow  
Snow 0.00 in 0.10 in - ()
Month to date snowfall 1.2 0.7  
Since 1 July snowfall 1.2 0.7  
Since 1 September snowfall 1.2 0.7  
Snow Depth 0.00 in    
Sea Level Pressure  
Sea Level Pressure 30.36 in    
Wind  
Wind Speed 3 mph (ENE)    
Max Wind Speed 8 mph    
Max Gust Speed 10 mph    
Visibility 10 miles    
Events      
T = Trace of Precipitation, MM = Missing Value Source: NWS Daily Summary

Daily Weather History Graph

Daily Weather History Graph

Search for Another Location

Airport or City:

Trip Planner

Search our weather history database for the weather conditions in past years. The results will help you decide how hot, cold, wet, or windy it might be!

Date:

Astronomy

Oct. 29, 2013 Rise Set
Actual Time 7:50 AM EDT 6:21 PM EDT
Civil Twilight 7:22 AM EDT 6:49 PM EDT
Nautical Twilight 6:49 AM EDT 7:22 PM EDT
Astronomical Twilight 6:17 AM EDT 7:54 PM EDT
Moon 2:36 AM EDT (10/29) 3:37 PM EDT (10/29)
Length of Visible Light 11h 27m
Length of Day
10h 30m
Waning Crescent, 25% of the Moon is Illuminated
Oct 29
Waning Crescent
Nov 3
New
Nov 10
First Quarter
Nov 17
Full
Nov 25
Last Quarter

Hourly Weather History & Observations

Time (EDT) Temp. Windchill Dew Point Humidity Pressure Visibility Wind Dir Wind Speed Gust Speed Precip Events Conditions
12:51 AM 37.0 °F 33.3 °F 34.0 °F 89% 30.34 in 10.0 mi NE 4.6 mph - N/A   Scattered Clouds
1:51 AM 35.1 °F - 33.1 °F 92% 30.36 in 10.0 mi Calm Calm - N/A   Scattered Clouds
2:51 AM 35.1 °F 31.0 °F 32.0 °F 89% 30.36 in 10.0 mi NE 4.6 mph - N/A   Partly Cloudy
3:51 AM 35.1 °F 31.0 °F 32.0 °F 89% 30.36 in 10.0 mi NE 4.6 mph - N/A   Partly Cloudy
4:51 AM 33.1 °F 30.0 °F 30.9 °F 92% 30.36 in 8.0 mi East 3.5 mph - N/A   Partly Cloudy
5:51 AM 33.1 °F - 30.9 °F 92% 30.38 in 9.0 mi Calm Calm - N/A   Partly Cloudy
6:51 AM 30.0 °F - 28.0 °F 92% 30.40 in 9.0 mi Calm Calm - N/A   Clear
7:51 AM 30.9 °F 27.5 °F 28.9 °F 92% 30.40 in 7.0 mi ENE 3.5 mph - N/A   Partly Cloudy
8:51 AM 34.0 °F 31.0 °F 33.1 °F 96% 30.42 in 7.0 mi East 3.5 mph - N/A   Scattered Clouds
9:51 AM 42.1 °F 38.4 °F 37.0 °F 82% 30.42 in 10.0 mi ESE 5.8 mph - N/A   Clear
10:51 AM 46.9 °F - 39.0 °F 74% 30.41 in 10.0 mi Calm Calm - N/A   Clear
11:51 AM 52.0 °F - 36.0 °F 54% 30.42 in 10.0 mi Calm Calm - N/A   Partly Cloudy
12:51 PM 54.0 °F - 36.0 °F 51% 30.39 in 10.0 mi Calm Calm - N/A   Scattered Clouds
1:51 PM 53.1 °F - 34.0 °F 48% 30.37 in 10.0 mi Calm Calm - N/A   Scattered Clouds
2:51 PM 55.9 °F - 35.1 °F 45% 30.34 in 10.0 mi Calm Calm - N/A   Mostly Cloudy
3:51 PM 55.0 °F - 34.0 °F 45% 30.32 in 10.0 mi Variable 3.5 mph - N/A   Overcast
4:51 PM 55.0 °F - 36.0 °F 49% 30.33 in 10.0 mi NNW 5.8 mph - N/A   Overcast
5:51 PM 50.0 °F - 37.0 °F 61% 30.33 in 10.0 mi NW 4.6 mph - N/A   Overcast
6:51 PM 48.0 °F - 35.1 °F 61% 30.33 in 10.0 mi ENE 3.5 mph - N/A   Mostly Cloudy
7:51 PM 45.0 °F 42.6 °F 36.0 °F 71% 30.32 in 10.0 mi ENE 4.6 mph - N/A   Mostly Cloudy
8:51 PM 41.0 °F 38.0 °F 35.1 °F 79% 30.33 in 10.0 mi East 4.6 mph - N/A   Mostly Cloudy
9:51 PM 43.0 °F 38.8 °F 35.1 °F 74% 30.31 in 10.0 mi East 6.9 mph - N/A   Overcast
10:51 PM 43.0 °F 39.5 °F 35.1 °F 74% 30.30 in 10.0 mi East 5.8 mph - N/A   Mostly Cloudy
11:51 PM 43.0 °F 39.5 °F 35.1 °F 74% 30.27 in 10.0 mi ESE 5.8 mph - N/A   Mostly Cloudy